Vertical_Velocity
-4 -2 -1 -1 -3 0 2 -1 -0 -6 4 -1 -1 0 -1 4 9 7 -18 8 -5 2 -3 1 -3 2 -2 -13 -2 -3 -8 0 1 -1 5 5 -6 11 16 -12 -12 3 -5 8 3
0 -3 -2 -0 -2 -1 1 -1 -1 -3 2 0 -4 2 1 4 2 -6 4 2 4 1 -7 9 -4 3 -9 -0 -5 -9 -4 2 1 1 2 4 -5 1 -9 3 3 -7 2 1 3
-0 -2 -3 -2 -1 -1 -2 -0 -2 -5 -0 1 -6 3 2 1 2 -2 1 1 2 -2 -2 -3 -2 -4 -15 4 2 3 -2 2 9 -0 -3 1 -7 1 -2 -0 9 2 6 2 -3
-2 -0 -2 -1 -1 1 -2 1 -3 -3 -2 -2 -3 1 -1 0 -10 -1 2 1 -1 -3 -2 0 -0 -9 -4 -3 2 -19 5 -1 7 6 -2 -2 3 -0 -7 14 4 4 6 6 1
2 1 -3 -0 -5 4 -1 -1 -3 -2 -3 -0 -3 1 -1 -7 -0 9 -0 3 0 6 -8 -3 -10 -3 -2 -3 -14 -10 4 -0 5 -2 0 -3 2 3 2 7 4 1 -2 -3 -3
1 2 -4 -1 -6 4 -0 0 -4 -3 -2 1 -1 -3 -3 -10 -0 2 1 12 -9 -10 1 -5 9 -3 -7 2 -6 0 -1 2 8 3 0 -14 6 -18 14 10 -3 -4 -4 -2 -3
5 -0 -2 -0 -5 2 2 -1 -3 -0 -2 -1 -0 -3 -2 1 -2 -0 9 1 8 -3 -12 3 -4 -0 1 -2 11 2 -11 -0 1 4 3 -6 -10 -0 4 5 -5 -1 0 -2 -1
4 0 0 -1 -3 -1 0 0 -4 -1 -0 -4 -0 -3 -3 -3 -0 -1 9 -4 9 3 -7 -2 12 -16 -6 4 4 -5 -6 -3 -3 1 1 -9 4 4 7 -9 -1 -1 -1 1 1
1 0 3 2 -3 0 -4 1 -3 -1 0 -1 1 -3 -2 -3 0 1 3 -2 2 9 -7 -1 -15 -7 4 -4 -3 -4 -1 -1 1 1 -0 -9 1 1 6 -1 -0 2 1 -0 -3
-3 1 0 4 -1 3 -4 2 -5 -2 0 0 -2 -4 -5 2 -2 0 4 5 -1 4 -7 -13 -7 -4 -3 -5 -5 -1 -1 -0 -1 -1 -2 0 2 2 3 -1 -2 2 1 -1 -2
-1 -8 -2 6 0 3 -5 2 -10 -1 -4 1 2 3 1 -0 7 2 2 3 -3 -6 -3 -2 -15 -1 -2 -1 -0 -2 -2 -1 0 2 -8 1 0 -0 1 2 0 -0 -1 -0 4
5 -7 -5 1 6 4 -7 0 -7 -0 -3 0 0 -1 1 -3 2 -2 1 -7 -4 -1 -0 -11 -1 -0 0 -1 -4 -1 -2 2 0 -0 -8 0 1 -0 1 0 -4 -5 0 3 5
4 -4 -4 -4 10 3 -4 -4 -4 0 -7 -3 -1 1 -1 -3 -2 -1 0 3 -3 -3 -0 -4 1 1 -2 -1 -5 0 -3 0 -6 1 -2 -3 -4 1 -0 1 4 5 5 3 1
4 -7 -3 0 8 -1 -1 -2 -1 2 -10 -6 -4 1 -1 -2 -5 4 -1 -2 -3 -4 -1 -1 -1 -1 -1 -1 -1 -1 0 -1 -1 -4 -5 -4 -5 -0 -0 0 2 2 2 -0 -2
-1 -3 -7 9 -3 2 -2 5 -3 0 -10 -11 0 4 2 -5 2 -2 -1 -0 0 1 -8 -7 -1 -1 -2 -0 -1 -4 -1 -0 -0 -1 -4 1 -3 -9 0 1 -1 1 2 -1 0
-0 0 -4 4 0 -2 -5 3 -2 -30 -14 -1 -0 -1 -2 -0 -1 3 -4 -6 1 -6 -3 0 1 -2 -1 0 -0 -1 -2 -3 -2 -2 -3 -4 -6 -6 -3 -11 1 2 4 -0 -1
2 -3 3 -3 2 -6 4 1 -18 -9 -9 -0 -2 -0 -1 1 1 -1 -1 -1 -5 -9 -3 -4 -1 -1 -1 -3 -3 -4 -5 -4 -7 -6 -8 0 -0 -11 -2 -1 -7 -6 -1 -2 -0
11 -14 2 -8 3 -3 -0 -13 -7 -6 -2 1 -1 1 -2 -2 1 1 -0 -0 2 -3 -2 -3 -8 -1 -1 -1 -5 1 -5 -8 -5 -2 -3 -1 -2 -15 -0 1 3 1 -1 1 -0
-1 6 -4 -3 7 1 -2 -4 -13 -3 -5 -2 -0 -1 1 1 -6 -2 -0 -2 -1 -1 -8 -3 -1 -1 -1 0 -5 -2 -4 -3 -5 -1 -2 -3 -5 -9 -0 3 4 0 -0 -2 -2
-12 -5 2 0 7 1 -8 -4 -1 -1 0 -1 -3 -4 -1 -0 -3 -2 -1 -3 1 -0 -1 -0 -5 -1 -2 1 0 -2 -4 -11 -6 -5 -2 -4 -1 -6 1 1 2 3 -2 -1 -1
1 -4 1 2 7 4 -6 -5 -1 -2 -0 -6 -1 -1 -2 -2 -2 0 -3 1 0 2 -1 -2 -11 -7 -2 -1 -3 -3 -1 -4 -8 -3 -5 -2 -9 -4 -3 -2 -2 -3 -2 -2 -2
-11 -4 -0 3 -0 1 -1 -3 1 0 1 -0 -2 -2 -3 -0 -0 -0 -2 -2 2 -1 -1 1 -4 -1 -0 -0 1 -0 -1 -3 -8 -7 -1 -3 -14 1 -1 -0 -0 -1 2 2 1
-9 -2 9 5 -5 -1 -0 -1 -0 1 0 1 -0 -2 -0 -1 -7 -1 0 3 2 -1 -3 -4 -2 -3 -11 -12 -6 0 1 -1 -1 -3 -2 -6 -12 0 2 0 0 -1 -2 -1 0
-6 -4 0 3 1 -4 -1 -1 0 0 -0 0 -1 -2 -2 -1 -1 -1 1 -0 0 -1 0 -3 -1 -7 -11 -12 -5 -1 1 -0 -4 -3 -3 -5 -2 -0 0 -0 -0 1 2 6 12
-3 -3 -7 -3 0 0 -1 -2 0 1 1 2 1 -3 -4 -2 -0 -0 0 1 0 1 -1 -5 -2 -1 -0 0 0 -1 -1 0 -1 -3 -7 -3 -1 -3 -3 0 1 2 -1 0 1
-17 -9 6 0 5 1 1 -1 -2 1 -4 1 -5 1 -1 -5 -9 -5 -4 -2 -5 2 -1 -0 -3 -0 0 -0 1 0 0 0 -0 -0 0 0 -3 -0 5 0 1 3 1 -2 -1
0 -0 -4 5 5 -3 -5 -1 -3 -2 -0 0 -8 -3 -1 0 1 2 1 -1 -6 -6 -0 -2 -2 -2 -1 -0 -0 -6 -7 -1 -1 -0 -5 -2 -10 2 3 1 1 2 -0 -0 1
Height
1546 1547 1548 1548 1549 1548 1548 1549 1548 1549 1548 1547 1545 1543 1542 1541 1539 1536 1533 1538 1535 1533 1531 1529 1530 1530 1530 1530 1534 1540 1562 1583 1583 1582 1590 1591 1585 1589 1593 1590 1591 1598 1600 1608 1607
1545 1548 1549 1549 1550 1549 1549 1550 1550 1550 1550 1548 1546 1544 1543 1541 1540 1537 1539 1538 1536 1534 1532 1531 1532 1533 1533 1537 1540 1545 1576 1580 1579 1582 1589 1591 1589 1592 1598 1600 1603 1605 1608 1610 1609
1545 1547 1550 1550 1551 1550 1550 1551 1551 1550 1551 1549 1546 1545 1543 1542 1541 1543 1541 1539 1537 1537 1534 1533 1535 1535 1538 1545 1553 1560 1577 1583 1587 1589 1592 1594 1597 1602 1600 1604 1611 1612 1614 1613 1610
1544 1546 1550 1551 1552 1551 1550 1551 1552 1552 1552 1551 1548 1546 1544 1543 1551 1546 1543 1543 1541 1540 1538 1538 1537 1539 1550 1560 1564 1569 1584 1586 1593 1595 1596 1599 1605 1609 1610 1617 1618 1617 1616 1614 1612
1544 1545 1549 1550 1552 1551 1550 1552 1553 1553 1553 1553 1550 1548 1547 1546 1550 1548 1548 1547 1545 1543 1542 1542 1539 1546 1556 1569 1572 1576 1590 1594 1598 1601 1602 1604 1609 1614 1620 1622 1622 1621 1619 1617 1616
1544 1545 1548 1551 1551 1551 1551 1553 1554 1554 1554 1555 1552 1550 1550 1549 1551 1551 1551 1550 1548 1549 1549 1548 1551 1557 1562 1571 1575 1590 1594 1600 1604 1605 1609 1608 1617 1615 1628 1625 1624 1623 1622 1622 1621
1545 1546 1547 1551 1552 1551 1551 1554 1555 1556 1555 1556 1555 1554 1553 1555 1553 1553 1554 1552 1551 1552 1552 1556 1557 1559 1568 1580 1588 1591 1597 1605 1606 1605 1612 1613 1625 1628 1628 1626 1626 1626 1626 1626 1626
1544 1547 1546 1549 1552 1552 1552 1555 1557 1558 1557 1558 1557 1556 1557 1556 1555 1556 1557 1556 1555 1555 1555 1560 1562 1563 1573 1585 1593 1597 1602 1614 1611 1609 1612 1613 1636 1631 1631 1626 1629 1628 1628 1627 1626
1543 1546 1547 1548 1551 1553 1553 1556 1558 1560 1559 1559 1559 1557 1560 1559 1558 1558 1559 1559 1560 1560 1560 1564 1566 1572 1584 1588 1600 1604 1615 1614 1614 1609 1610 1613 1632 1631 1631 1627 1631 1631 1629 1630 1629
1543 1546 1547 1548 1550 1553 1554 1557 1560 1562 1562 1561 1561 1562 1563 1563 1561 1560 1561 1562 1563 1565 1565 1569 1575 1583 1589 1596 1611 1607 1613 1613 1615 1613 1613 1620 1629 1631 1632 1628 1630 1630 1631 1631 1631
1544 1547 1548 1548 1550 1553 1556 1557 1565 1566 1564 1565 1565 1563 1564 1565 1564 1563 1563 1565 1565 1568 1573 1575 1589 1600 1597 1596 1594 1602 1609 1615 1615 1615 1620 1627 1631 1631 1632 1629 1631 1631 1631 1632 1631
1542 1546 1548 1548 1551 1553 1555 1557 1562 1566 1568 1568 1567 1565 1566 1566 1566 1566 1568 1569 1569 1579 1579 1588 1600 1597 1595 1592 1597 1603 1614 1619 1618 1617 1620 1630 1631 1630 1630 1628 1628 1629 1631 1631 1630
1539 1545 1548 1549 1552 1554 1555 1559 1562 1565 1567 1571 1570 1567 1568 1570 1571 1570 1571 1572 1576 1584 1587 1596 1600 1596 1594 1601 1602 1613 1615 1615 1619 1620 1624 1630 1638 1634 1632 1632 1631 1630 1631 1631 1631
1538 1544 1547 1550 1556 1554 1557 1560 1563 1566 1579 1574 1572 1570 1571 1570 1575 1573 1574 1577 1582 1591 1592 1600 1599 1598 1601 1607 1610 1614 1612 1611 1618 1625 1639 1627 1641 1632 1630 1630 1629 1628 1629 1630 1632
1537 1542 1547 1550 1552 1554 1558 1561 1564 1567 1605 1572 1572 1571 1570 1572 1576 1577 1576 1578 1587 1591 1594 1606 1603 1603 1606 1608 1607 1613 1612 1613 1616 1625 1630 1631 1639 1629 1627 1630 1627 1626 1627 1629 1631
1535 1540 1547 1549 1552 1555 1558 1561 1567 1587 1601 1571 1571 1572 1572 1573 1576 1578 1578 1581 1589 1595 1597 1605 1604 1603 1606 1607 1607 1609 1613 1621 1627 1632 1645 1624 1631 1629 1628 1617 1622 1624 1626 1627 1629
1531 1538 1547 1546 1551 1556 1558 1563 1584 1599 1571 1572 1572 1572 1573 1575 1578 1578 1582 1586 1596 1610 1610 1609 1610 1607 1606 1608 1608 1611 1623 1655 1645 1657 1645 1621 1632 1616 1613 1611 1614 1620 1625 1628 1629
1528 1538 1542 1547 1551 1557 1558 1566 1594 1572 1571 1564 1568 1573 1577 1575 1579 1580 1585 1591 1591 1598 1617 1618 1622 1612 1608 1611 1613 1615 1620 1647 1641 1649 1632 1619 1624 1621 1610 1608 1611 1618 1623 1627 1629
1528 1535 1542 1547 1551 1556 1559 1583 1574 1564 1560 1563 1570 1575 1577 1575 1578 1581 1585 1591 1589 1592 1606 1617 1617 1613 1612 1610 1613 1617 1630 1624 1636 1643 1640 1627 1618 1615 1611 1612 1615 1618 1622 1624 1626
1525 1534 1546 1548 1552 1556 1561 1567 1561 1554 1556 1558 1570 1573 1580 1578 1580 1583 1587 1586 1587 1589 1593 1605 1618 1615 1614 1613 1613 1614 1621 1637 1654 1656 1655 1633 1623 1628 1615 1616 1617 1619 1619 1620 1622
1526 1539 1545 1547 1552 1556 1569 1563 1556 1552 1554 1558 1562 1571 1574 1576 1581 1583 1589 1587 1586 1590 1592 1603 1615 1622 1617 1617 1617 1622 1627 1632 1638 1644 1648 1647 1625 1611 1609 1610 1613 1615 1616 1617 1618
1524 1538 1542 1547 1554 1555 1560 1553 1551 1551 1553 1554 1555 1561 1571 1574 1579 1583 1586 1587 1585 1586 1595 1600 1616 1630 1621 1620 1617 1615 1619 1624 1651 1649 1647 1646 1629 1607 1604 1607 1611 1614 1615 1616 1616
1522 1536 1540 1544 1553 1556 1551 1551 1550 1550 1551 1553 1555 1557 1565 1572 1582 1584 1585 1588 1586 1587 1595 1598 1620 1644 1628 1626 1621 1618 1626 1635 1639 1637 1634 1650 1627 1609 1607 1610 1612 1614 1614 1613 1613
1518 1533 1540 1541 1542 1544 1549 1550 1550 1548 1550 1549 1553 1558 1566 1575 1578 1585 1587 1589 1587 1588 1592 1596 1612 1618 1627 1622 1623 1632 1631 1637 1635 1650 1637 1631 1616 1612 1610 1610 1611 1611 1611 1611 1609
1514 1520 1523 1533 1540 1540 1546 1547 1547 1549 1548 1548 1553 1557 1564 1578 1581 1586 1589 1590 1589 1590 1594 1597 1615 1619 1620 1615 1615 1616 1620 1627 1632 1627 1625 1613 1618 1610 1610 1610 1611 1611 1610 1611 1610
1507 1513 1518 1521 1532 1539 1541 1544 1546 1546 1548 1549 1554 1558 1560 1570 1569 1582 1583 1586 1585 1591 1596 1599 1617 1609 1616 1614 1615 1614 1614 1619 1620 1618 1620 1617 1617 1607 1609 1609 1609 1610 1609 1611 1611
1503 1507 1512 1522 1529 1537 1537 1539 1541 1542 1549 1548 1551 1557 1562 1564 1565 1569 1575 1578 1580 1587 1596 1601 1610 1619 1622 1615 1614 1622 1606 1609 1610 1609 1609 1616 1608 1606 1610 1611 1612 1611 1611 1611 1610